Regional Weather Roundup
Issued by NWS Cleveland, OH

Home | Current Version | Previous Version | Text Only | Print | Product List | Glossary Off
Versions: 1 2 3 4 5 6 7 8 9 10 11 12 13 14 15 16 17 18 19 20 21 22 23 24 25 26 27 28 29 30 31 32 33 34 35 36 37 38 39 40 41 42 43 44 45 46 47 48 49 50

561
ASUS41 KCLE 252210
RWRCLE
OHIO REGIONAL WEATHER ROUNDUP
NATIONAL WEATHER SERVICE CLEVELAND, OH
600 PM EDT SUN SEP 25 2016

NOTE: "FAIR" INDICATES FEW OR NO CLOUDS BELOW 12,000 FEET WITH NO
SIGNIFICANT WEATHER AND/OR OBSTRUCTIONS TO VISIBILITY.

OHZ001>008-015>018-024>027-034-035-043-044-252300-
   NORTHWEST OHIO

CITY           SKY/WX    TMP DP  RH WIND       PRES   REMARKS
DEFIANCE       SUNNY     79  55  43 E6        30.03F
FINDLAY        SUNNY     81  47  30 E7        30.04F
TOLEDO EXPRESS SUNNY     71  54  54 E12       30.06F
TOLEDO EXEC    SUNNY     71  52  50 E9        30.08F
LIMA           CLOUDY    80  62  54 W3        30.05F
$$

OHZ009>014-019>023-028>033-038-089-252300-
   NORTHEAST OHIO

CITY           SKY/WX    TMP DP  RH WIND       PRES   REMARKS
CLE-HOPKINS    MOSUNNY   71  49  45 NE10      30.11F
CLE-LAKEFRONT  SUNNY     69  53  56 NE13      30.09F
CUY CO. ARPT   SUNNY     72  54  53 NE12      30.11F
LORAIN-ELYRIA  SUNNY     71  48  43 NE8       30.10F
ASHTABULA      SUNNY     67  51  56 NE5       30.14S
AKRON-CANTON   MOSUNNY   74  45  35 N3        30.10F
WOOSTER        SUNNY     74  45  35 E7        30.10F
MANSFIELD      SUNNY     77  44  30 SE3       30.09F
YOUNGSTOWN     CLOUDY    71  45  39 E5        30.12F
$$

OHZ042-051>053-060>062-070>072-077>081-252300-
  SOUTHWEST OHIO

CITY           SKY/WX    TMP DP  RH WIND       PRES   REMARKS
CINC-COVINGTON MOSUNNY   85  64  49 W3        30.04F
CINC-LUNKEN    MOSUNNY   83  67  58 E3        30.03F
HAMILTON       SUNNY     84  64  50 CALM      30.04F
DAYTON         MOSUNNY   81  63  54 S3        30.06S
WRIGHT-PAT AFB MOSUNNY   82  62  50 S2        30.04F
DAYTON GENERAL SUNNY     82  63  52 SW3       30.05F
WILMINGTON     SUNNY     82  64  54 W7        30.05F
$$

OHZ036-037-039>041-045>050-054>059-063>069-073>076-082>088-252300-
  CENTRAL AND SOUTHEAST OHIO

CITY           SKY/WX    TMP DP  RH WIND       PRES   REMARKS
COLUMBUS       SUNNY     80  49  33 N6        30.06F
OSU AIRPORT    SUNNY     80  55  42 E3        30.06F
BOLTON FIELD   SUNNY     81  61  50 CALM      30.06F
RICKENBACK AFB SUNNY     80  55  43 CALM      30.06S
NEWARK         SUNNY     80  45  28 NE3       30.07F
MARION         SUNNY     80  46  30 SE3       30.07F
LANCASTER      SUNNY     81  47  30 NW3       30.06F
ZANESVILLE     SUNNY     80  44  27 N3        30.08S
NEW PHILLY     SUNNY     79  44  28 VRB7      30.09F
$$




USA.gov is the U.S. government's official web portal to all federal, state and local government web resources and services.